カタログに戻る

DELTA 1 DEB

運用中PO
NORAD 26846·DEBRIS·🇺🇸 United States

打ち上げ Jun 12, 1975 から Vandenberg Space Force Base

Loading…

次のパス (今後24時間)

TLE

最新Source: Space-Track

元期: Sep 13, 2026, 14:03 UTC

1 26846U 75052LA  26256.58549616  .00000152  00000-0  48833-3 0  9997
2 26846  99.7404 289.1876 0171902  87.5454  64.8000 13.12923993408030

AllMySatでDELTA 1 DEBをリアルタイム追跡

Download on the App Store